[[{"header":{"parameterUnit":"m.s-1","parameterCategory":1,"la1":30.2991,"la2":30.254,"lo1":-89.0895,"lo2":-89.0444,"dy":0.0017,"dx":0.0017,"nx":28,"ny":28,"refTime":"2024-02-26T03:00:00:Z","depth":0,"parameterNumber":2,"parameterNumberName":"U-component_of_WINDS"},"data":[0,0,0,0,0,0,0,0,0,0,0,0,0,0,0,0,0,0,0,0,0,0,0,0,0,0,0,0,0,0,0,0,0,0,0,0,0,0,0,0,0,0,0,0,0,0,0,0,0,0,0,0,0,0,0,0,0,0,-1.6168,-1.6169,0,-1.6266,-1.6267,-1.6269,-1.6308,-1.6308,-1.6308,-1.6307,-1.6405,-1.6407,-1.641,0,0,0,0,0,0,0,0,0,0,0,0,0,-1.601,-1.6013,-1.6168,-1.6169,-1.617,-1.6266,-1.6268,-1.6269,-1.6308,-1.6308,-1.6308,-1.6307,-1.6404,-1.6407,-1.641,0,0,0,0,0,0,0,0,0,0,0,0,0,-1.609,-1.6014,-1.6168,-1.6202,-1.6206,-1.6266,-1.6268,-1.6269,-1.6308,-1.6308,-1.6308,-1.6307,-1.6403,-1.6407,-1.6411,-1.6444,0,0,-1.6424,-1.6425,0,0,0,0,0,0,0,0,-1.6086,-1.6096,-1.6195,-1.6199,-1.6204,-1.6275,-1.6248,-1.6328,-1.6308,-1.6269,-1.6307,-1.6307,-1.6361,-1.6369,-1.6388,-1.6448,-1.6452,-1.6424,-1.6427,-1.6428,-1.643,0,0,0,0,0,0,0,-1.608,-1.6092,-1.6207,-1.6197,-1.6202,-1.6211,-1.6222,-1.6263,-1.6316,-1.6273,-1.6276,-1.6287,-1.6364,-1.6384,-1.6391,-1.6454,-1.6424,-1.6428,-1.643,-1.6432,-1.6545,-1.6545,0,0,0,0,0,0,-1.6069,-1.6087,-1.6204,-1.621,-1.6143,-1.6214,-1.6226,-1.6252,-1.6316,-1.6325,-1.6287,-1.6288,-1.6377,-1.6386,-1.6394,-1.6437,-1.6428,-1.6432,-1.6435,-1.6544,-1.6545,-1.6545,0,0,0,0,0,0,-1.6066,-1.608,-1.62,-1.6149,-1.6165,-1.6217,-1.6246,-1.6254,-1.6275,-1.6327,-1.6336,-1.6298,-1.6377,-1.6388,-1.6431,-1.644,-1.6434,-1.6438,-1.6544,-1.6544,-1.6545,-1.6521,0,0,0,0,0,0,-1.6061,-1.6078,-1.6092,-1.6149,-1.6168,-1.6236,-1.6247,-1.6257,-1.6282,-1.6285,-1.634,-1.6348,-1.6378,-1.6425,-1.6435,-1.6446,-1.6441,-1.6543,-1.6544,-1.6545,-1.6521,-1.6521,-1.6521,0,0,0,0,0,-1.6055,-1.6081,-1.6092,-1.6106,-1.6187,-1.6236,-1.6247,-1.6281,-1.6283,-1.6297,-1.633,-1.6347,-1.6438,-1.6429,-1.6441,-1.6453,-1.6543,-1.6544,-1.6545,-1.6522,-1.6521,-1.6521,0,0,0,0,0,0,-1.6022,-1.6089,-1.6103,-1.6147,-1.6186,-1.6243,-1.6262,-1.628,-1.6318,-1.6318,-1.6358,-1.637,-1.6409,-1.6436,-1.6424,-1.6488,-1.6491,-1.6495,-1.6469,-1.6469,-1.6469,-1.6462,-1.6445,0,0,0,0,0,-1.602,-1.6056,-1.6112,-1.6146,-1.6165,-1.621,-1.6233,-1.6256,-1.6297,-1.6313,-1.635,-1.6388,-1.6425,-1.6449,-1.6486,-1.6525,-1.6537,-1.654,-1.6539,-1.6539,-1.6541,-1.6564,-1.6565,-1.6549,-1.6549,-1.6549,0,0,-1.6015,-1.6056,-1.6077,-1.614,-1.6173,-1.6208,-1.6223,-1.626,-1.6286,-1.6318,-1.6361,-1.6389,-1.6434,-1.6476,-1.6496,-1.6499,-1.6548,-1.654,-1.6539,-1.6542,-1.6565,-1.6566,-1.6568,-1.655,-1.655,-1.6549,0,0,-1.6026,-1.6061,-1.6093,-1.6125,-1.6175,-1.6205,-1.6212,-1.6267,-1.6287,-1.6331,-1.6356,-1.6387,-1.645,-1.6481,-1.6505,-1.6527,-1.6543,-1.6538,-1.6536,-1.6557,-1.6558,-1.656,-1.6567,-1.6569,-1.654,-1.654,-1.654,0,-1.6014,-1.6069,-1.6106,-1.6142,-1.6169,-1.6201,-1.6233,-1.6262,-1.6321,-1.6338,-1.6341,-1.6421,-1.6454,-1.6502,-1.6508,-1.6526,-1.6535,-1.6532,-1.6556,-1.6557,-1.6559,-1.6566,-1.6569,-1.6539,-1.6539,-1.6539,-1.6539,0,-1.6052,-1.609,-1.6109,-1.6166,-1.6195,-1.6229,-1.627,-1.6295,-1.6315,-1.6344,-1.6388,-1.6428,-1.6474,-1.6487,-1.6507,-1.6538,-1.6539,-1.6548,-1.6552,-1.6559,-1.6566,-1.657,-1.6538,-1.6538,-1.6538,-1.6539,0,0,-1.6044,-1.6121,-1.6128,-1.6154,-1.6211,-1.624,-1.6274,-1.632,-1.634,-1.6379,-1.6409,-1.6462,-1.6471,-1.6498,-1.6521,-1.654,-1.6554,-1.6547,-1.6549,-1.6547,-1.6591,-1.6583,-1.6586,-1.6565,-1.6566,-1.6567,-1.6587,0,-1.6061,-1.6126,-1.616,-1.6209,-1.6244,-1.6275,-1.6305,-1.6342,-1.637,-1.6403,-1.6433,-1.647,-1.6479,-1.6496,-1.6516,-1.6548,-1.6563,-1.6547,-1.6592,-1.6593,-1.658,-1.659,-1.6583,-1.66,-1.659,-1.6591,-1.6591,0,-1.6091,-1.6131,-1.6184,-1.6236,-1.6252,-1.6279,-1.6323,-1.6355,-1.6397,-1.6416,-1.6447,-1.647,-1.6506,-1.6508,-1.6558,-1.6546,-1.6566,-1.6585,-1.6586,-1.6591,-1.6592,-1.6595,-1.6606,-1.6608,-1.6596,-1.6596,-1.6595,0,-1.6079,-1.6146,-1.6186,-1.6208,-1.627,-1.6288,-1.6314,-1.6357,-1.6382,-1.6421,-1.6437,-1.6479,-1.6502,-1.6533,-1.6566,-1.6564,-1.6613,-1.6617,-1.6629,-1.6628,-1.6637,-1.6636,-1.6651,-1.665,-1.665,-1.665,-1.665,0,-1.6095,-1.6126,-1.6182,-1.6207,-1.6242,-1.6281,-1.6314,-1.6343,-1.638,-1.641,-1.6439,-1.6466,-1.6509,-1.6541,-1.6567,-1.6605,-1.6615,-1.663,-1.6637,-1.6628,-1.6626,-1.6641,-1.6641,-1.6651,-1.6651,-1.6651,-1.6651,0,-1.6088,-1.6127,-1.6173,-1.6228,-1.6243,-1.6266,-1.6313,-1.6338,-1.6367,-1.6405,-1.6416,-1.6461,-1.6501,-1.6538,-1.659,-1.6607,-1.6645,-1.6653,-1.6631,-1.6634,-1.6643,-1.6642,-1.6669,-1.6674,-1.667,-1.667,-1.667,0,-1.6096,-1.6121,-1.6179,-1.6202,-1.6228,-1.6264,-1.629,-1.6329,-1.6354,-1.6405,-1.6423,-1.6465,-1.65,-1.6562,-1.6599,-1.6639,-1.6648,-1.6655,-1.6654,-1.6644,-1.6648,-1.6646,-1.6649,-1.6654,-1.6654,-1.6654,-1.6654,0,-1.6105,-1.6123,-1.616,-1.6204,-1.6234,-1.627,-1.6307,-1.6324,-1.6369,-1.6396,-1.6438,-1.6465,-1.6519,-1.656,-1.6604,-1.663,-1.6649,-1.6654,-1.6659,-1.6649,-1.6635,-1.6643,-1.6629,-1.6653,-1.6653,-1.6653,-1.6653,-1.6653,-1.6106,-1.6129,-1.6174,-1.6214,-1.6246,-1.6279,-1.6305,-1.6338,-1.6374,-1.6421,-1.6441,-1.6483,-1.6524,-1.6586,-1.6612,-1.6644,-1.6648,-1.6655,-1.6657,-1.6658,-1.6656,-1.663,-1.6652,-1.6652,-1.6653,-1.6653,-1.6653,0,-1.6116,-1.6146,-1.6183,-1.6234,-1.6265,-1.6282,-1.6323,-1.6348,-1.6385,-1.6422,-1.6457,-1.6504,-1.6544,-1.6584,-1.6625,-1.6644,-1.6653,-1.6653,-1.6652,-1.6658,-1.665,-1.6642,-1.6645,-1.6645,-1.6645,-1.6645,-1.6645,-1.6645,-1.6125,-1.6166,-1.6189,-1.6245,-1.6274,-1.6316,-1.6339,-1.6369,-1.64,-1.6451,-1.6485,-1.6511,-1.655,-1.6594,-1.6631,-1.6642,-1.6656,-1.6653,-1.6666,-1.6658,-1.6658,-1.6659,-1.6651,-1.6656,-1.6656,-1.6671,-1.6671,-1.6671]},{"header":{"parameterUnit":"m.s-1","parameterCategory":1,"la1":30.2991,"la2":30.254,"lo1":-89.0895,"lo2":-89.0444,"dy":0.0017,"dx":0.0017,"nx":28,"ny":28,"refTime":"2024-02-26T03:00:00:Z","depth":0,"parameterNumber":3,"parameterNumberName":"V-component_of_WINDS"},"data":[0,0,0,0,0,0,0,0,0,0,0,0,0,0,0,0,0,0,0,0,0,0,0,0,0,0,0,0,0,0,0,0,0,0,0,0,0,0,0,0,0,0,0,0,0,0,0,0,0,0,0,0,0,0,0,0,0,0,5.4379,5.4381,0,5.4587,5.4589,5.4591,5.4649,5.4648,5.4646,5.4645,5.4858,5.4865,5.4872,0,0,0,0,0,0,0,0,0,0,0,0,0,5.4036,5.4042,5.4379,5.4382,5.4384,5.4586,5.4589,5.4592,5.4649,5.4648,5.4646,5.4645,5.4856,5.4864,5.4872,0,0,0,0,0,0,0,0,0,0,0,0,0,5.4208,5.4044,5.4379,5.4437,5.4444,5.4586,5.4589,5.4593,5.4649,5.4648,5.4646,5.4644,5.4854,5.4863,5.4874,5.4972,0,0,5.4905,5.4909,0,0,0,0,0,0,0,0,5.4198,5.4221,5.4426,5.4433,5.4442,5.459,5.4546,5.472,5.465,5.4571,5.4645,5.4643,5.4771,5.4787,5.483,5.4982,5.4991,5.4905,5.4912,5.4916,5.4919,0,0,0,0,0,0,0,5.4186,5.4212,5.4461,5.4429,5.4438,5.4454,5.4477,5.458,5.4679,5.4578,5.4583,5.4607,5.4775,5.482,5.4836,5.4994,5.4905,5.4914,5.4921,5.4925,5.5242,5.5245,0,0,0,0,0,0,5.4164,5.4202,5.4455,5.4467,5.4313,5.4462,5.4487,5.4544,5.4678,5.4696,5.4608,5.4608,5.4804,5.4824,5.4844,5.4972,5.4916,5.4925,5.4931,5.524,5.5243,5.5245,0,0,0,0,0,0,5.4156,5.4186,5.4446,5.4336,5.437,5.447,5.4533,5.4549,5.4595,5.47,5.4718,5.4636,5.4803,5.4829,5.4941,5.4979,5.493,5.4939,5.5237,5.5241,5.5244,5.5225,0,0,0,0,0,0,5.4146,5.4183,5.422,5.4336,5.4376,5.4539,5.4536,5.4555,5.4612,5.4615,5.4732,5.4749,5.4804,5.4925,5.4951,5.4993,5.4947,5.5234,5.5239,5.5243,5.5223,5.5228,5.5232,0,0,0,0,0,5.4134,5.4206,5.4222,5.4252,5.4425,5.4541,5.4564,5.4625,5.4615,5.4655,5.4723,5.4745,5.4971,5.4936,5.4965,5.5011,5.5232,5.5238,5.5243,5.5221,5.5227,5.5232,0,0,0,0,0,0,5.4091,5.4222,5.4241,5.4352,5.4435,5.455,5.4602,5.4629,5.4716,5.4715,5.4788,5.4813,5.4921,5.4977,5.4936,5.5116,5.5102,5.5113,5.5075,5.5082,5.5086,5.5072,5.4956,0,0,0,0,0,5.4094,5.4177,5.4287,5.4375,5.4416,5.4501,5.4554,5.4595,5.4684,5.4719,5.4795,5.488,5.4971,5.5029,5.5118,5.5231,5.5259,5.5277,5.5281,5.5284,5.5294,5.5362,5.5373,5.5263,5.5263,5.5262,0,0,5.4102,5.4184,5.4232,5.4369,5.4437,5.4523,5.453,5.462,5.4685,5.4732,5.4844,5.4902,5.5003,5.5117,5.5171,5.5167,5.5331,5.5291,5.5293,5.5301,5.5369,5.5379,5.5388,5.5266,5.5266,5.5265,0,0,5.4162,5.423,5.4313,5.4383,5.4487,5.4545,5.4564,5.4677,5.4718,5.483,5.4869,5.4948,5.5101,5.5173,5.5229,5.532,5.5345,5.5346,5.537,5.5436,5.5445,5.5453,5.5489,5.55,5.5355,5.5355,5.5355,0,5.4159,5.4289,5.4352,5.4442,5.4502,5.455,5.4636,5.47,5.4828,5.487,5.4863,5.506,5.5131,5.5264,5.5287,5.5329,5.5357,5.5334,5.5438,5.5447,5.5455,5.5491,5.5503,5.5355,5.5355,5.5355,5.5355,0,5.4282,5.4372,5.4426,5.4551,5.4617,5.4704,5.4783,5.4842,5.4878,5.4936,5.5053,5.5139,5.5249,5.5283,5.5317,5.5423,5.5418,5.5423,5.5412,5.5465,5.5499,5.5513,5.5354,5.5354,5.5355,5.5355,0,0,5.432,5.448,5.4499,5.4558,5.4678,5.475,5.484,5.4947,5.4999,5.5086,5.5166,5.5297,5.5305,5.5368,5.5412,5.5469,5.554,5.5469,5.5473,5.5482,5.5666,5.5663,5.5677,5.5557,5.556,5.5562,5.5659,0,5.4397,5.456,5.4621,5.4755,5.4842,5.4889,5.4969,5.5052,5.511,5.5193,5.5256,5.5349,5.535,5.539,5.5449,5.5519,5.5579,5.5512,5.5635,5.5638,5.5611,5.5695,5.5691,5.5778,5.5672,5.5675,5.5676,0,5.4508,5.4598,5.4741,5.4855,5.4894,5.4963,5.507,5.5147,5.5244,5.5282,5.5355,5.5396,5.5495,5.5475,5.5615,5.5568,5.5622,5.5664,5.5669,5.5685,5.5662,5.5716,5.5807,5.5821,5.5697,5.5696,5.5694,0,5.4526,5.4683,5.479,5.4838,5.4972,5.5021,5.5079,5.5175,5.5237,5.5329,5.5371,5.5473,5.553,5.5609,5.5677,5.5656,5.5812,5.5797,5.5849,5.5847,5.5881,5.5878,5.5985,5.591,5.591,5.591,5.5909,0,5.4607,5.4694,5.48,5.4866,5.4966,5.5037,5.5134,5.5195,5.528,5.5361,5.5407,5.5482,5.5566,5.5653,5.5706,5.5816,5.584,5.5876,5.589,5.5873,5.5869,5.5911,5.5908,5.5913,5.5912,5.5912,5.5911,0,5.4644,5.4718,5.4839,5.4957,5.4989,5.5058,5.5159,5.5227,5.5287,5.5389,5.5417,5.5512,5.5617,5.5692,5.5826,5.5863,5.5981,5.5993,5.5949,5.5957,5.6005,5.6001,5.6145,5.617,5.6075,5.6076,5.6076,0,5.4692,5.476,5.4886,5.4944,5.5003,5.5094,5.5158,5.5231,5.5297,5.5414,5.5468,5.5576,5.5667,5.5832,5.5914,5.6018,5.6035,5.6078,5.6051,5.6034,5.604,5.6036,5.6045,5.6083,5.6083,5.6084,5.6084,0,5.4771,5.4806,5.4896,5.5001,5.5077,5.5163,5.5249,5.5294,5.5383,5.5454,5.5562,5.5632,5.5771,5.5879,5.5992,5.6053,5.6085,5.6092,5.6111,5.6096,5.6069,5.6089,5.5963,5.6089,5.6089,5.6088,5.6088,5.6088,5.4818,5.4883,5.4983,5.5083,5.5156,5.5237,5.5308,5.5378,5.5469,5.5588,5.5626,5.5739,5.5838,5.5992,5.6056,5.6146,5.6145,5.617,5.6177,5.6183,5.6184,5.6052,5.6167,5.6167,5.6167,5.6166,5.6166,0,5.4903,5.497,5.5062,5.5183,5.5263,5.5285,5.5383,5.545,5.5548,5.5638,5.5727,5.5853,5.5959,5.605,5.616,5.6215,5.6233,5.6242,5.624,5.6255,5.6177,5.6153,5.6226,5.6226,5.6226,5.6226,5.6226,5.6226,5.4957,5.5069,5.5115,5.5265,5.5332,5.5443,5.5498,5.5574,5.5647,5.5786,5.5874,5.5933,5.6024,5.6142,5.6241,5.6265,5.6305,5.6312,5.634,5.6266,5.6259,5.6253,5.623,5.6319,5.6319,5.641,5.6411,5.6411]}]]